Time,TemperatureF,DewpointF,PressureIn,WindDirection,WindDirectionDegrees,WindSpeedMPH,WindSpeedGustMPH,Humidity,HourlyPrecipIn,Conditions,Clouds,dailyrainin,SolarRadiationWatts/m^2,SoftwareType,DateUTC
2013-05-29 00:03:00,72.0,59.0,-100.00,SSW,203,3.0,7.0,63,0.00,,,0.00,0.000000,,2013-05-29 04:03:00,
2013-05-29 00:13:00,72.0,59.0,-100.00,SSW,203,3.0,7.0,63,0.00,,,0.00,0.000000,,2013-05-29 04:13:00,
2013-05-29 00:23:00,72.0,59.0,-100.00,SSW,203,3.0,7.0,63,0.00,,,0.00,0.000000,,2013-05-29 04:23:00,
2013-05-29 00:53:00,72.0,59.0,-100.00,SSW,206,3.0,6.0,64,0.00,,,0.00,0.000000,,2013-05-29 04:53:00,
2013-05-29 01:03:00,72.0,59.0,-100.00,SSW,206,3.0,6.0,64,0.00,,,0.00,0.000000,,2013-05-29 05:03:00,
2013-05-29 01:12:00,72.0,59.0,-100.00,SSW,206,3.0,6.0,64,0.00,,,0.00,0.000000,,2013-05-29 05:12:00,
2013-05-29 01:22:00,72.0,59.0,-100.00,SSW,206,3.0,6.0,64,0.00,,,0.00,0.000000,,2013-05-29 05:22:00,
2013-05-29 01:52:00,71.0,59.0,-100.00,SSW,194,3.0,6.0,66,0.00,,,0.00,0.000000,,2013-05-29 05:52:00,
2013-05-29 02:02:00,71.0,59.0,-100.00,SSW,194,3.0,6.0,66,0.00,,,0.00,0.000000,,2013-05-29 06:02:00,
2013-05-29 02:12:00,71.0,59.0,-100.00,SSW,194,3.0,6.0,66,0.00,,,0.00,0.000000,,2013-05-29 06:12:00,
2013-05-29 02:21:00,71.0,59.0,-100.00,SSW,194,3.0,6.0,66,0.00,,,0.00,0.000000,,2013-05-29 06:21:00,
2013-05-29 02:52:00,71.0,59.0,-100.00,SSW,211,2.0,7.0,65,0.00,,,0.00,0.000000,,2013-05-29 06:52:00,
2013-05-29 03:01:00,71.0,59.0,-100.00,SSW,211,2.0,7.0,65,0.00,,,0.00,0.000000,,2013-05-29 07:01:00,
2013-05-29 03:12:00,71.0,59.0,-100.00,SSW,211,2.0,7.0,65,0.00,,,0.00,0.000000,,2013-05-29 07:12:00,
2013-05-29 03:22:00,71.0,59.0,-100.00,SSW,211,2.0,7.0,65,0.00,,,0.00,0.000000,,2013-05-29 07:22:00,
2013-05-29 03:53:00,69.0,58.0,-100.00,WSW,245,2.0,4.0,68,0.00,,,0.00,0.000000,,2013-05-29 07:53:00,
2013-05-29 04:02:00,69.0,58.0,-100.00,WSW,245,2.0,4.0,68,0.00,,,0.00,0.000000,,2013-05-29 08:02:00,
2013-05-29 04:11:00,69.0,58.0,-100.00,WSW,245,2.0,4.0,68,0.00,,,0.00,0.000000,,2013-05-29 08:11:00,
2013-05-29 04:22:00,69.0,58.0,-100.00,WSW,245,2.0,4.0,68,0.00,,,0.00,0.000000,,2013-05-29 08:22:00,
2013-05-29 04:52:00,68.0,57.0,-100.00,WSW,248,0.0,4.0,68,0.00,,,0.00,0.000000,,2013-05-29 08:52:00,
2013-05-29 05:02:00,68.0,57.0,-100.00,WSW,248,0.0,4.0,68,0.00,,,0.00,0.000000,,2013-05-29 09:02:00,
2013-05-29 05:11:00,68.0,57.0,-100.00,WSW,248,0.0,4.0,68,0.00,,,0.00,0.000000,,2013-05-29 09:11:00,
2013-05-29 05:21:00,68.0,57.0,-100.00,WSW,248,0.0,4.0,68,0.00,,,0.00,0.000000,,2013-05-29 09:21:00,
2013-05-29 05:53:00,66.0,56.0,-100.00,NW,305,1.0,2.0,70,0.00,,,0.00,0.000000,,2013-05-29 09:53:00,
2013-05-29 06:03:00,66.0,56.0,-100.00,NW,305,1.0,2.0,70,0.00,,,0.00,0.000000,,2013-05-29 10:03:00,
2013-05-29 06:12:00,66.0,56.0,-100.00,NW,305,1.0,2.0,70,0.00,,,0.00,0.000000,,2013-05-29 10:12:00,
2013-05-29 06:22:00,66.0,56.0,-100.00,NW,305,1.0,2.0,70,0.00,,,0.00,0.000000,,2013-05-29 10:22:00,
2013-05-29 06:53:00,67.0,57.0,-100.00,WNW,287,2.0,4.0,70,0.00,,,0.00,9.000000,,2013-05-29 10:53:00,
2013-05-29 07:02:00,67.0,57.0,-100.00,WNW,287,2.0,4.0,70,0.00,,,0.00,9.000000,,2013-05-29 11:02:00,
2013-05-29 07:12:00,67.0,57.0,-100.00,WNW,287,2.0,4.0,70,0.00,,,0.00,9.000000,,2013-05-29 11:12:00,
2013-05-29 07:22:00,67.0,57.0,-100.00,WNW,287,2.0,4.0,70,0.00,,,0.00,9.000000,,2013-05-29 11:22:00,
2013-05-29 07:52:00,73.0,61.0,-100.00,West,278,2.0,4.0,67,0.00,,,0.00,126.000000,,2013-05-29 11:52:00,
2013-05-29 08:01:00,73.0,61.0,-100.00,West,278,2.0,4.0,67,0.00,,,0.00,126.000000,,2013-05-29 12:01:00,
2013-05-29 08:11:00,73.0,61.0,-100.00,West,278,2.0,4.0,67,0.00,,,0.00,126.000000,,2013-05-29 12:11:00,
2013-05-29 08:22:00,73.0,61.0,-100.00,West,278,2.0,4.0,67,0.00,,,0.00,126.000000,,2013-05-29 12:22:00,
2013-05-29 08:52:00,77.0,62.0,-100.00,West,272,4.0,10.0,60,0.00,,,0.00,165.000000,,2013-05-29 12:52:00,
2013-05-29 09:02:00,77.0,62.0,-100.00,West,272,4.0,10.0,60,0.00,,,0.00,165.000000,,2013-05-29 13:02:00,
2013-05-29 09:11:00,77.0,62.0,-100.00,West,272,4.0,10.0,60,0.00,,,0.00,165.000000,,2013-05-29 13:11:00,
2013-05-29 09:22:00,77.0,62.0,-100.00,West,272,4.0,10.0,60,0.00,,,0.00,165.000000,,2013-05-29 13:22:00,
2013-05-29 09:53:00,79.0,62.0,-100.00,West,270,4.0,9.0,56,0.00,,,0.00,215.000000,,2013-05-29 13:53:00,
2013-05-29 10:02:00,79.0,62.0,-100.00,West,270,4.0,9.0,56,0.00,,,0.00,215.000000,,2013-05-29 14:02:00,
2013-05-29 10:11:00,79.0,62.0,-100.00,West,270,4.0,9.0,56,0.00,,,0.00,215.000000,,2013-05-29 14:11:00,
2013-05-29 10:22:00,79.0,62.0,-100.00,West,270,4.0,9.0,56,0.00,,,0.00,215.000000,,2013-05-29 14:22:00,
2013-05-29 10:52:00,78.0,62.0,-100.00,SSW,203,4.0,9.0,57,0.00,,,0.00,384.000000,,2013-05-29 14:52:00,
2013-05-29 11:01:00,78.0,62.0,-100.00,SSW,203,4.0,9.0,57,0.00,,,0.00,384.000000,,2013-05-29 15:01:00,
2013-05-29 11:11:00,78.0,62.0,-100.00,SSW,203,4.0,9.0,57,0.00,,,0.00,384.000000,,2013-05-29 15:11:00,
2013-05-29 11:21:00,78.0,62.0,-100.00,SSW,203,4.0,9.0,57,0.00,,,0.00,384.000000,,2013-05-29 15:21:00,
2013-05-29 11:53:00,81.0,62.0,-100.00,SSE,153,6.0,12.0,53,0.00,,,0.00,705.000000,,2013-05-29 15:53:00,
2013-05-29 12:03:00,81.0,62.0,-100.00,SSE,153,6.0,12.0,53,0.00,,,0.00,705.000000,,2013-05-29 16:03:00,
2013-05-29 12:13:00,81.0,62.0,-100.00,SSE,153,6.0,12.0,53,0.00,,,0.00,705.000000,,2013-05-29 16:13:00,
2013-05-29 12:22:00,81.0,62.0,-100.00,SSE,153,6.0,12.0,53,0.00,,,0.00,705.000000,,2013-05-29 16:22:00,
2013-05-29 12:52:00,82.0,63.0,-100.00,SSE,158,6.0,13.0,52,0.00,,,0.00,929.000000,,2013-05-29 16:52:00,
2013-05-29 13:02:00,82.0,63.0,-100.00,SSE,158,6.0,13.0,52,0.00,,,0.00,929.000000,,2013-05-29 17:02:00,
2013-05-29 13:12:00,82.0,63.0,-100.00,SSE,158,6.0,13.0,52,0.00,,,0.00,929.000000,,2013-05-29 17:12:00,
2013-05-29 13:22:00,82.0,63.0,-100.00,SSE,158,6.0,13.0,52,0.00,,,0.00,929.000000,,2013-05-29 17:22:00,
2013-05-29 13:52:00,82.0,63.0,-100.00,SSE,147,6.0,13.0,53,0.00,,,0.00,957.000000,,2013-05-29 17:52:00,
2013-05-29 14:01:00,82.0,63.0,-100.00,SSE,147,6.0,13.0,53,0.00,,,0.00,957.000000,,2013-05-29 18:01:00,
2013-05-29 14:13:00,82.0,63.0,-100.00,SSE,147,6.0,13.0,53,0.00,,,0.00,957.000000,,2013-05-29 18:13:00,
2013-05-29 14:22:00,82.0,63.0,-100.00,SSE,147,6.0,13.0,53,0.00,,,0.00,957.000000,,2013-05-29 18:22:00,
2013-05-29 14:52:00,82.0,64.0,-100.00,SSE,152,6.0,13.0,54,0.00,,,0.00,776.000000,,2013-05-29 18:52:00,
2013-05-29 15:02:00,82.0,64.0,-100.00,SSE,152,6.0,13.0,54,0.00,,,0.00,776.000000,,2013-05-29 19:02:00,
2013-05-29 15:12:00,82.0,64.0,-100.00,SSE,152,6.0,13.0,54,0.00,,,0.00,776.000000,,2013-05-29 19:12:00,
2013-05-29 15:22:00,82.0,64.0,-100.00,SSE,152,6.0,13.0,54,0.00,,,0.00,776.000000,,2013-05-29 19:22:00,
2013-05-29 15:53:00,81.0,63.0,-100.00,SSE,159,5.0,13.0,54,0.00,,,0.00,245.000000,,2013-05-29 19:53:00,
2013-05-29 16:03:00,81.0,63.0,-100.00,SSE,159,5.0,13.0,54,0.00,,,0.00,245.000000,,2013-05-29 20:03:00,
2013-05-29 16:12:00,81.0,63.0,-100.00,SSE,159,5.0,13.0,54,0.00,,,0.00,245.000000,,2013-05-29 20:12:00,
2013-05-29 16:23:00,81.0,63.0,-100.00,SSE,159,5.0,13.0,54,0.00,,,0.00,245.000000,,2013-05-29 20:23:00,
2013-05-29 16:53:00,81.0,63.0,-100.00,South,169,6.0,12.0,55,0.00,,,0.00,737.000000,,2013-05-29 20:53:00,
2013-05-29 17:02:00,81.0,63.0,-100.00,South,169,6.0,12.0,55,0.00,,,0.00,737.000000,,2013-05-29 21:02:00,
2013-05-29 17:12:00,81.0,63.0,-100.00,South,169,6.0,12.0,55,0.00,,,0.00,737.000000,,2013-05-29 21:12:00,
2013-05-29 17:22:00,81.0,63.0,-100.00,South,169,6.0,12.0,55,0.00,,,0.00,737.000000,,2013-05-29 21:22:00,
2013-05-29 17:53:00,80.0,61.0,-100.00,South,172,5.0,15.0,53,0.00,,,0.00,258.000000,,2013-05-29 21:53:00,
2013-05-29 18:03:00,80.0,61.0,-100.00,South,172,5.0,15.0,53,0.00,,,0.00,258.000000,,2013-05-29 22:03:00,
2013-05-29 18:13:00,80.0,61.0,-100.00,South,172,5.0,15.0,53,0.00,,,0.00,258.000000,,2013-05-29 22:13:00,
2013-05-29 18:23:00,80.0,61.0,-100.00,South,172,5.0,15.0,53,0.00,,,0.00,258.000000,,2013-05-29 22:23:00,
2013-05-29 18:53:00,78.0,61.0,-100.00,South,182,6.0,13.0,55,0.00,,,0.00,314.000000,,2013-05-29 22:53:00,
2013-05-29 19:02:00,78.0,61.0,-100.00,South,182,6.0,13.0,55,0.00,,,0.00,314.000000,,2013-05-29 23:02:00,
2013-05-29 19:12:00,78.0,61.0,-100.00,South,182,6.0,13.0,55,0.00,,,0.00,314.000000,,2013-05-29 23:12:00,
2013-05-29 19:22:00,78.0,61.0,-100.00,South,182,6.0,13.0,55,0.00,,,0.00,314.000000,,2013-05-29 23:22:00,
2013-05-29 19:53:00,75.0,59.0,-100.00,South,171,4.0,12.0,57,0.00,,,0.00,87.000000,,2013-05-29 23:53:00,
2013-05-29 20:02:00,75.0,59.0,-100.00,South,171,4.0,12.0,57,0.00,,,0.00,87.000000,,2013-05-30 00:02:00,
2013-05-29 20:12:00,75.0,59.0,-100.00,South,171,4.0,12.0,57,0.00,,,0.00,87.000000,,2013-05-30 00:12:00,
2013-05-29 20:22:00,75.0,59.0,-100.00,South,171,4.0,12.0,57,0.00,,,0.00,87.000000,,2013-05-30 00:22:00,
2013-05-29 20:52:00,74.0,58.0,-100.00,South,190,3.0,12.0,58,0.00,,,0.00,14.000000,,2013-05-30 00:52:00,
2013-05-29 21:02:00,74.0,58.0,-100.00,South,190,3.0,12.0,58,0.00,,,0.00,14.000000,,2013-05-30 01:02:00,
2013-05-29 21:11:00,74.0,58.0,-100.00,South,190,3.0,12.0,58,0.00,,,0.00,14.000000,,2013-05-30 01:11:00,
2013-05-29 21:22:00,74.0,58.0,-100.00,South,190,3.0,12.0,58,0.00,,,0.00,14.000000,,2013-05-30 01:22:00,
2013-05-29 21:52:00,73.0,59.0,-100.00,SSW,204,3.0,8.0,61,0.00,,,0.00,0.000000,,2013-05-30 01:52:00,
2013-05-29 22:02:00,73.0,59.0,-100.00,SSW,204,3.0,8.0,61,0.00,,,0.00,0.000000,,2013-05-30 02:02:00,
2013-05-29 22:11:00,73.0,59.0,-100.00,SSW,204,3.0,8.0,61,0.00,,,0.00,0.000000,,2013-05-30 02:11:00,
2013-05-29 22:22:00,73.0,59.0,-100.00,SSW,204,3.0,8.0,61,0.00,,,0.00,0.000000,,2013-05-30 02:22:00,
2013-05-29 23:02:00,73.0,59.0,-100.00,SSW,200,3.0,8.0,62,0.00,,,0.00,0.000000,,2013-05-30 03:02:00,
2013-05-29 23:11:00,73.0,59.0,-100.00,SSW,200,3.0,8.0,62,0.00,,,0.00,0.000000,,2013-05-30 03:11:00,
2013-05-29 23:21:00,73.0,59.0,-100.00,SSW,200,3.0,8.0,62,0.00,,,0.00,0.000000,,2013-05-30 03:21:00,
2013-05-29 23:53:00,73.0,59.0,-100.00,SSE,163,4.0,8.0,62,0.00,,,0.00,0.000000,,2013-05-30 03:53:00,